TURKSAT 4B (40984 NORAD) Tracking and Keplerian Element Data

This shows tracking and keplerian element data for the satellite.

Feedback or suggestion? Click here.




ElementValue
Catalog40984
NameTURKSAT 4B
Epoch Orbit1256
Epoch Day77.4796614
Epoch Year2019
RAAN153.4133
Inclination0.0253
Eccentricity0.0002271
Argument of Perigee210.8228
Mean Anonmoly34.1687
Mean Motion1.00271177
Decay Rate9.2E-07
L11 40984U 15060A 19077.47966140 .00000092 00000-0 00000-0 0 9999
L22 40984 0.0253 153.4133 0002271 210.8228 34.1687 1.00271177 12561

Live tracking and technical data element details for TURKSAT 4B (NORAD 40984). TURKSAT 4B can be tracked NOW for your location showing map with azimuth and elevation plus other details from your city location.

Track the satellite on the map from your city or location and see movement details for azimuth, elevation, latitude, longitude, range, height, and movement on the map or in text.







IsCatalogInMostPopularTable: catalog: 40984, numindb: 205
Update: records affected: 1



GetName: 40984 TURKSAT 4B

Hit Count: updated at: Wed, 20 Mar 2019 05:24:13 GMT